User: anonymous   Login
Location: Amarillo Post Office Jordan Station
(35.1907°N, 101.9342°W)
Time: 10:40:47
(UTC+00:00)
Language:

Chandra Rocket (1) - Orbit

View from above orbital plane
View from above orbital plane
View from above satellite
View from above satellite

Ground track
Ground track

The orbit data is extracted from the following two-line orbital elements,

1 25868U 99040C   21101.05063926  .00000467  00000-0  94134-4 0  9999
2 25868  28.4434   3.1185 4417931 299.0919  23.8793  6.56209032487983
Epoch (UTC): 11 April 2021 01:12:55
Eccentricity: 0.4417931
inclination: 28.4434°
perigee height: 349 km
apogee height: 10997 km
right ascension of ascending node: 3.1185°
argument of perigee: 299.0919°
revolutions per day: 6.56209032
mean anomaly at epoch: 23.8793°
orbit number at epoch: 48798

The dashed part of the orbit path shows where the satellite is in the earth's shadow,  

DLR